1,427,246개(17040/71363페이지)
LECTURE
번호 제목 글쓴이 조회 날짜
1086466 Internet Poker - using Cash Games To A e MclaughlinJensby6882 5 2022.03.23 17:20
1086465 Baseball game has real grownup in popula KruseSkovgaard5350 4 2022.03.23 17:20
1086464 The fact that was The Most Popular Name ArthurBernstein3185 4 2022.03.23 17:19
1086463 Army Clothing: What's So Special About I DealKnight0129 3 2022.03.23 17:19
1086462 Top Suicide Cleanup Columbus Ohio OrtegaEvans2970 5 2022.03.23 17:19
1086461 Learn To Efficiently Handle Your Search LauridsenJonsson3193 5 2022.03.23 17:19
1086460 Pharmacokinetics along with Protection r RichterSvenstrup7721 6 2022.03.23 17:19
1086459 Gimana Ampuh Bermain Game Slot Gacor, Ha AcostaWilliford5825 6 2022.03.23 17:19
1086458 Deciding On Whether To Buy Army Surplus HaysFunder9838 5 2022.03.23 17:19
1086457 Beyondlife Membership Nft BeckerHensley3817 6 2022.03.23 17:19
1086456 Eight Key Ways The professionals Use For HollisHowell3274 11 2022.03.23 17:19
1086455 The Right Way To Generate Income From Th CantrellKolding2147 8 2022.03.23 17:19
1086454 Nothing To See Here. Only A Bunch Of Us LercheBerger5007 8 2022.03.23 17:18
1086453 Macam mana Membantu Tertulis Slot untuk 사진 StorgaardUlrich0085 6 2022.03.23 17:18
1086452 Apilimod Effectively Improves Histone Ac VilstrupChung0076 5 2022.03.23 17:18
1086451 Soccer Picks - Start Winning Today AbramsMichaelsen0649 4 2022.03.23 17:18
1086450 Buy Weed Online In 2022| Top 4 Brands To HoganAdams5720 3 2022.03.23 17:18
1086449 How You Can Market place Content article BarkerChavez7667 5 2022.03.23 17:18
1086448 Setthi Lotto - How to Play the Lotto Onl IversenLivingston0092 7 2022.03.23 17:18
1086447 Essential Tips For Boosting Your Soccer CallesenCurrin6584 3 2022.03.23 17:18